TimeMST,TemperatureF,Dew PointF,Humidity,Sea Level PressureIn,VisibilityMPH,Wind Direction,Wind SpeedMPH,Gust SpeedMPH,PrecipitationIn,Events,Conditions,WindDirDegrees,DateUTC
12:48 AM,-0.0,-4.0,83,30.52,-9999.0,Calm,Calm,-,N/A,,Unknown,0,2013-03-05 07:48:00
1:48 AM,1.9,-0.9,88,30.53,-9999.0,Calm,Calm,-,N/A,,Unknown,0,2013-03-05 08:48:00
2:48 AM,-4.0,-9.0,79,30.53,-9999.0,Calm,Calm,-,N/A,,Unknown,0,2013-03-05 09:48:00
3:48 AM,-8.0,-11.0,86,30.53,-9999.0,Calm,Calm,-,N/A,,Unknown,0,2013-03-05 10:48:00
4:48 AM,-6.0,-11.0,79,30.53,-9999.0,WNW,5.8,-,N/A,,Unknown,300,2013-03-05 11:48:00
5:48 AM,-7.1,-9.9,87,30.55,-9999.0,Calm,Calm,-,N/A,,Unknown,0,2013-03-05 12:48:00
6:48 AM,-6.0,-9.9,83,30.54,-9999.0,Calm,Calm,-,N/A,,Unknown,0,2013-03-05 13:48:00
7:48 AM,-0.9,-4.0,87,30.54,-9999.0,Calm,Calm,-,N/A,,Unknown,0,2013-03-05 14:48:00
8:48 AM,3.9,-0.0,84,30.52,-9999.0,East,5.8,-,N/A,,Unknown,90,2013-03-05 15:48:00
9:48 AM,10.9,6.1,81,30.49,-9999.0,East,3.5,-,N/A,,Unknown,100,2013-03-05 16:48:00
10:48 AM,17.1,10.9,77,30.47,-9999.0,ESE,5.8,-,N/A,,Unknown,120,2013-03-05 17:48:00
11:48 AM,19.9,12.0,71,30.45,-9999.0,SSE,8.1,-,N/A,,Unknown,150,2013-03-05 18:48:00
12:48 PM,19.9,12.9,74,30.44,-9999.0,SSE,8.1,-,N/A,,Unknown,150,2013-03-05 19:48:00
1:48 PM,21.9,15.1,75,30.40,-9999.0,SE,10.4,-,N/A,,Unknown,130,2013-03-05 20:48:00
2:48 PM,23.0,14.0,68,30.38,-9999.0,ESE,10.4,-,N/A,,Unknown,110,2013-03-05 21:48:00
3:48 PM,21.9,16.0,78,30.38,-9999.0,ESE,11.5,-,N/A,,Unknown,110,2013-03-05 22:48:00
4:48 PM,21.9,14.0,72,30.37,-9999.0,East,11.5,-,N/A,,Unknown,100,2013-03-05 23:48:00
5:48 PM,19.9,14.0,78,30.36,-9999.0,East,9.2,-,N/A,,Unknown,90,2013-03-06 00:48:00
6:48 PM,19.0,14.0,81,30.35,-9999.0,East,8.1,-,N/A,,Unknown,90,2013-03-06 01:48:00
7:48 PM,18.0,12.9,81,30.34,-9999.0,East,6.9,-,N/A,,Unknown,90,2013-03-06 02:48:00
8:48 PM,15.1,12.0,88,30.33,-9999.0,East,6.9,-,N/A,,Unknown,90,2013-03-06 03:48:00
9:48 PM,15.1,10.9,84,30.30,-9999.0,East,6.9,-,N/A,,Unknown,80,2013-03-06 04:48:00
10:48 PM,14.0,10.0,84,30.29,-9999.0,ENE,9.2,-,N/A,,Unknown,60,2013-03-06 05:48:00
11:48 PM,14.0,10.0,84,30.27,-9999.0,East,6.9,-,N/A,,Unknown,80,2013-03-06 06:48:00